User: anonymous   Login
Location: Bandys
(35.4750°N, 81.0830°W)
Time: 18:14:25
(UTC-04:00)
Language:

DELTA 2 R/B (1) - Orbit

View from above orbital plane
View from above orbital plane
View from above satellite
View from above satellite

Ground track
Ground track

The orbit data is extracted from the following two-line orbital elements,

1 27665U 03005C   15087.02751887  .00000177  00000-0  10384-3 0  9997
2 27665 039.5754 285.2993 0007933 020.6368 146.8362 14.28314586634775
Epoch (UTC): 28 March 2015 00:39:37
Eccentricity: 0.0007933
inclination: 39.5754°
perigee height: 791 km
apogee height: 803 km
right ascension of ascending node: 285.2993°
argument of perigee: 20.6368°
revolutions per day: 14.28314586
mean anomaly at epoch: 146.8362°
orbit number at epoch: 63477

The dashed part of the orbit path shows where the satellite is in the earth's shadow,  

DLR